Погода в Малайере

Иран     34°17′19″N   48°49′16″E
В апреле 2022 года жителям России запретили посещать сайт meteo.paraplan.net по решению Генеральной прокуратуры. Аудитория сайта уменьшилась в 10 раз. Владельцы сайта не видят смысла в поддержке погодного сервера в таких условиях. Сайт будет закрыт в октябре.
темп.,
°C
ветер,
м/с
пор.,
м/с
влажн.,
%
обл.,
%
осадки,
мм/ч
давл.,
гПа
погр.,
м
26 сентября, пн
пн2600:30+17юв22150 0.0 101311
03:30+16вюв22170 0.0 101311
06:30+15св32340 0.0 101518
09:30+21св23280 0.0 1015657
12:30+29ююз4780 0.0 10103165
15:30+30ююз8860 0.0 10084225
18:30+23ююз45110 0.0 101173
21:30+18в22210 0.0 101411
27 сентября, вт
вт2700:30+16вюв22270 0.0 101411
03:30+15в22370 0.0 101311
06:30+15вюв22380 0.0 101411
09:30+24ююв23190 0.0 1013823
12:30+29ю81070 0.0 10093209
15:30+29ю9860 0.0 10083482
18:30+22ю58100 0.0 1011108
21:30+18ююв22130 0.0 101311
28 сентября, ср
ср2800:30+16ююв22140 0.0 101311
03:30+15ююв22160 0.0 101311
06:30+14юв22190 0.0 101311
09:30+23юв12110 0.0 1012705
12:30+28ю5680 0.0 10083159
15:30+29ю6580 0.0 10063499
18:30+22зюз33120 0.0 100818
21:30+18юз11170 0.0 101111
29 сентября, чт
чт2900:30+16сз11190 0.0 101111
03:30+14ююз01210 0.0 101111
06:30+14вюв11220 0.0 101211
09:30+23всв11120 0.0 1011629
12:30+28юз1390 0.0 10082699
15:30+29юз2270 0.0 10063466
18:30+23сз22110 0.0 100812
21:30+20зюз22140 0.0 101011
30 сентября, пт
пт3000:30+17ююз11160 0.0 101111
03:30+16ююз11180 0.0 101111
06:30+15ююз11200 0.0 101311
09:30+25сз11110 0.0 1013597
12:30+28ссз2180 0.0 10112711
15:30+29сз2270 0.0 10093166
18:30+23сз22100 0.0 101111
21:30+19юз11130 0.0 101211